TimeEDT,TemperatureF,Dew PointF,Humidity,Sea Level PressureIn,VisibilityMPH,Wind Direction,Wind SpeedMPH,Gust SpeedMPH,PrecipitationIn,Events,Conditions,WindDirDegrees,DateUTC
12:53 AM,71.1,69.1,93,30.27,10.0,NNE,5.8,-,N/A,,Partly Cloudy,30,2013-07-15 04:53:00
1:53 AM,71.1,69.1,93,30.27,10.0,NNE,5.8,-,N/A,,Mostly Cloudy,20,2013-07-15 05:53:00
2:02 AM,71.6,69.8,94,30.29,10.0,NNE,5.8,-,N/A,,Scattered Clouds,30,2013-07-15 06:02:00
2:53 AM,71.1,69.1,93,30.26,10.0,NE,5.8,-,N/A,,Clear,40,2013-07-15 06:53:00
3:53 AM,70.0,69.1,97,30.26,10.0,NNE,4.6,-,N/A,,Clear,30,2013-07-15 07:53:00
4:28 AM,69.8,69.8,100,30.29,9.0,NNE,4.6,-,N/A,,Partly Cloudy,20,2013-07-15 08:28:00
4:53 AM,70.0,69.1,97,30.27,9.0,NNE,4.6,-,N/A,,Partly Cloudy,20,2013-07-15 08:53:00
5:14 AM,69.8,69.8,100,30.29,9.0,NNE,4.6,-,N/A,,Mostly Cloudy,20,2013-07-15 09:14:00
5:25 AM,69.8,69.8,100,30.30,9.0,NNE,5.8,-,N/A,,Overcast,20,2013-07-15 09:25:00
5:49 AM,69.8,69.8,100,30.30,10.0,NNE,5.8,-,N/A,,Mostly Cloudy,20,2013-07-15 09:49:00
5:53 AM,70.0,69.1,97,30.27,9.0,NNE,4.6,-,N/A,,Mostly Cloudy,20,2013-07-15 09:53:00
6:02 AM,69.8,69.8,100,30.30,9.0,North,4.6,-,N/A,,Mostly Cloudy,10,2013-07-15 10:02:00
6:18 AM,69.8,69.8,100,30.30,10.0,North,3.5,-,N/A,,Mostly Cloudy,10,2013-07-15 10:18:00
6:53 AM,71.1,69.1,93,30.28,9.0,North,4.6,-,N/A,,Overcast,10,2013-07-15 10:53:00
7:53 AM,72.0,70.0,93,30.30,8.0,North,3.5,-,N/A,,Overcast,10,2013-07-15 11:53:00
8:53 AM,73.0,71.1,93,30.30,8.0,NE,6.9,-,N/A,,Overcast,40,2013-07-15 12:53:00
9:53 AM,75.0,71.1,87,30.30,10.0,NE,6.9,-,N/A,,Overcast,50,2013-07-15 13:53:00
10:53 AM,75.0,71.1,87,30.31,9.0,NE,8.1,-,0.00,Rain,Light Rain,50,2013-07-15 14:53:00
11:53 AM,79.0,70.0,74,30.32,10.0,ESE,8.1,-,0.00,,Overcast,110,2013-07-15 15:53:00
12:00 PM,80.6,69.8,70,30.34,10.0,ENE,6.9,-,N/A,,Scattered Clouds,60,2013-07-15 16:00:00
12:13 PM,80.6,69.8,70,30.34,10.0,ESE,6.9,-,N/A,,Mostly Cloudy,110,2013-07-15 16:13:00
12:53 PM,82.0,70.0,67,30.30,10.0,Variable,6.9,-,N/A,,Partly Cloudy,0,2013-07-15 16:53:00
1:53 PM,82.9,70.0,65,30.28,10.0,ENE,10.4,-,N/A,,Partly Cloudy,60,2013-07-15 17:53:00
2:53 PM,84.9,69.1,59,30.26,10.0,ENE,10.4,-,N/A,,Scattered Clouds,60,2013-07-15 18:53:00
3:53 PM,84.9,69.1,59,30.25,10.0,NE,9.2,-,N/A,,Scattered Clouds,50,2013-07-15 19:53:00
4:53 PM,84.0,69.1,61,30.23,10.0,NE,10.4,-,N/A,,Scattered Clouds,40,2013-07-15 20:53:00
5:53 PM,82.0,69.1,65,30.23,10.0,ENE,8.1,-,N/A,,Scattered Clouds,60,2013-07-15 21:53:00
6:53 PM,82.0,70.0,67,30.24,10.0,East,6.9,-,N/A,,Overcast,80,2013-07-15 22:53:00
7:37 PM,80.6,71.6,74,30.28,10.0,NE,3.5,-,N/A,Thunderstorm,Mostly Cloudy,50,2013-07-15 23:37:00
7:53 PM,80.1,72.0,76,30.24,10.0,ENE,3.5,-,N/A,,Partly Cloudy,60,2013-07-15 23:53:00
8:53 PM,75.9,71.1,85,30.25,10.0,Calm,Calm,-,0.00,,Scattered Clouds,0,2013-07-16 00:53:00
9:09 PM,73.4,71.6,94,30.28,10.0,Calm,Calm,-,N/A,Thunderstorm,Partly Cloudy,0,2013-07-16 01:09:00
9:25 PM,75.2,71.6,89,30.28,10.0,Calm,Calm,-,N/A,,Mostly Cloudy,0,2013-07-16 01:25:00
9:53 PM,75.0,72.0,90,30.26,7.0,ESE,5.8,-,0.00,Rain,Light Rain,110,2013-07-16 01:53:00
10:53 PM,73.9,72.0,93,30.27,10.0,Calm,Calm,-,0.02,,Overcast,0,2013-07-16 02:53:00
11:53 PM,73.0,71.1,93,30.28,9.0,Calm,Calm,-,N/A,,Partly Cloudy,0,2013-07-16 03:53:00